| time (UTC) | temp F | wind direction | speed knots | gust knots | rain 1hr in | rain 24hr in | rain mn in | humidity % | barometer mb |
| 20260507170003 | 62 | 74 | 2.6 | 7.8 | 0.00 | 0.23 | 0.02 | 41 | 1005.7 |
| 20260507165717 | 61 | 269 | 3.5 | 11.3 | 0.00 | 0.23 | 0.02 | 42 | 1005.8 |
| 20260507164949 | 61 | 55 | 2.6 | 11.3 | 0.00 | 0.23 | 0.02 | 38 | 1005.7 |
| 20260507164420 | 61 | 83 | 2.6 | 7.0 | 0.00 | 0.23 | 0.02 | 41 | 1006.1 |
| 20260507163919 | 60 | 92 | 2.6 | 7.0 | 0.00 | 0.23 | 0.02 | 42 | 1006.0 |
| 20260507163351 | 60 | 57 | 3.5 | 12.2 | 0.00 | 0.23 | 0.02 | 43 | 1006.2 |
| 20260507162849 | 60 | 0 | 3.5 | 12.2 | 0.00 | 0.23 | 0.02 | 44 | 1006.3 |
| 20260507162320 | 60 | 84 | 2.6 | 10.4 | 0.00 | 0.23 | 0.02 | 47 | 1006.3 |
| 20260507162028 | 60 | 351 | 3.5 | 8.7 | 0.00 | 0.23 | 0.02 | 44 | 1006.4 |
| 20260507161231 | 60 | 213 | 2.6 | 10.4 | 0.00 | 0.23 | 0.02 | 45 | 1006.3 |
| 20260507160732 | 60 | 0 | 2.6 | 9.6 | 0.00 | 0.23 | 0.02 | 46 | 1006.3 |
| 20260507160205 | 60 | 129 | 1.7 | 6.1 | 0.00 | 0.23 | 0.02 | 49 | 1006.4 |
| 20260507155707 | 59 | 255 | 1.7 | 8.7 | 0.00 | 0.23 | 0.02 | 53 | 1006.4 |
| 20260507155420 | 58 | 128 | 2.6 | 8.7 | 0.00 | 0.23 | 0.02 | 52 | 1006.4 |
| 20260507154652 | 59 | 33 | 2.6 | 7.8 | 0.00 | 0.23 | 0.02 | 55 | 1006.5 |
| 20260507154132 | 59 | 345 | 2.6 | 7.0 | 0.00 | 0.23 | 0.02 | 59 | 1006.5 |
| 20260507153607 | 58 | 221 | 1.7 | 5.2 | 0.00 | 0.23 | 0.02 | 59 | 1006.5 |
| 20260507153106 | 58 | 48 | 1.7 | 4.3 | 0.00 | 0.23 | 0.02 | 61 | 1006.5 |
| 20260507152609 | 57 | 55 | 1.7 | 4.3 | 0.00 | 0.23 | 0.02 | 61 | 1006.6 |
| 20260507152102 | 57 | 5 | 1.7 | 9.6 | 0.00 | 0.23 | 0.02 | 62 | 1006.7 |
| 20260507151602 | 57 | 43 | 2.6 | 9.6 | 0.00 | 0.23 | 0.02 | 62 | 1006.5 |
| 20260507151036 | 57 | 244 | 1.7 | 8.7 | 0.00 | 0.23 | 0.02 | 60 | 1006.5 |
| 20260507150525 | 57 | 240 | 1.7 | 8.7 | 0.00 | 0.23 | 0.02 | 61 | 1006.6 |
| 20260507150242 | 58 | 261 | 1.7 | 3.5 | 0.00 | 0.23 | 0.02 | 62 | 1006.7 |
| 20260507145510 | 58 | 250 | 1.7 | 4.3 | 0.00 | 0.23 | 0.02 | 65 | 1006.8 |
| 20260507145010 | 57 | 97 | 1.7 | 4.3 | 0.00 | 0.23 | 0.02 | 67 | 1006.8 |
| 20260507144451 | 57 | 294 | 1.7 | 3.5 | 0.00 | 0.23 | 0.02 | 65 | 1006.9 |
| 20260507143950 | 57 | 15 | 1.7 | 5.2 | 0.00 | 0.23 | 0.02 | 63 | 1006.8 |
| 20260507143437 | 57 | 198 | 1.7 | 4.3 | 0.00 | 0.23 | 0.02 | 66 | 1006.7 |
| 20260507143432 | 57 | 27 | 1.7 | 5.2 | 0.00 | 0.23 | 0.02 | 62 | 1006.9 |
| 20260507142408 | 56 | 225 | 1.7 | 4.3 | 0.00 | 0.23 | 0.02 | 63 | 1006.8 |
| 20260507142121 | 56 | 272 | 1.7 | 3.5 | 0.00 | 0.23 | 0.02 | 62 | 1006.9 |
| 20260507141826 | 56 | 96 | 2.6 | 8.7 | 0.00 | 0.23 | 0.02 | 63 | 1006.8 |
| 20260507140808 | 56 | 56 | 1.7 | 8.7 | 0.00 | 0.23 | 0.02 | 64 | 1006.9 |
| 20260507140307 | 56 | 118 | 1.7 | 4.3 | 0.00 | 0.23 | 0.02 | 66 | 1006.9 |
| 20260507135806 | 56 | 102 | 1.7 | 4.3 | 0.00 | 0.23 | 0.02 | 64 | 1006.7 |
| 20260507135306 | 56 | 321 | 1.7 | 4.3 | 0.00 | 0.23 | 0.02 | 65 | 1006.8 |
| 20260507134805 | 56 | 54 | 1.7 | 3.5 | 0.00 | 0.23 | 0.02 | 63 | 1006.7 |
| 20260507134239 | 56 | 38 | 1.7 | 4.3 | 0.00 | 0.23 | 0.02 | 66 | 1006.6 |
| 20260507133714 | 56 | 281 | 1.7 | 7.0 | 0.00 | 0.23 | 0.02 | 67 | 1006.7 |
| 20260507133148 | 55 | 117 | 1.7 | 7.0 | 0.00 | 0.23 | 0.02 | 66 | 1006.8 |
| 20260507132624 | 54 | 341 | 1.7 | 7.0 | 0.00 | 0.23 | 0.02 | 69 | 1006.9 |
| 20260507132059 | 54 | 59 | 1.7 | 7.0 | 0.00 | 0.23 | 0.02 | 67 | 1007.0 |
| 20260507131538 | 54 | 65 | 0.9 | 5.2 | 0.00 | 0.23 | 0.02 | 69 | 1007.1 |
| 20260507131037 | 53 | 292 | 1.7 | 5.2 | 0.00 | 0.23 | 0.02 | 71 | 1007.2 |
| 20260507130538 | 53 | 86 | 1.7 | 8.7 | 0.00 | 0.23 | 0.02 | 71 | 1007.2 |
| 20260507130042 | 53 | 25 | 1.7 | 8.7 | 0.00 | 0.23 | 0.02 | 70 | 1007.2 |
| 20260507125512 | 52 | 21 | 0.9 | 3.5 | 0.00 | 0.23 | 0.02 | 75 | 1007.2 |
| 20260507125011 | 52 | 96 | 0.9 | 3.5 | 0.00 | 0.23 | 0.02 | 75 | 1007.3 |
| 20260507124442 | 52 | 141 | 1.7 | 3.5 | 0.00 | 0.23 | 0.02 | 76 | 1007.3 |
| 20260507123939 | 51 | 35 | 1.7 | 4.3 | 0.00 | 0.23 | 0.02 | 76 | 1007.3 |
| 20260507123437 | 51 | 252 | 0.9 | 5.2 | 0.00 | 0.23 | 0.02 | 78 | 1007.4 |
| 20260507122908 | 50 | 250 | 1.7 | 5.2 | 0.00 | 0.23 | 0.02 | 80 | 1007.4 |
| 20260507122407 | 50 | 69 | 2.6 | 5.2 | 0.00 | 0.23 | 0.02 | 80 | 1007.5 |
| 20260507121902 | 50 | 65 | 1.7 | 5.2 | 0.00 | 0.23 | 0.02 | 80 | 1007.4 |
| 20260507121401 | 49 | 289 | 0.9 | 5.2 | 0.00 | 0.23 | 0.02 | 81 | 1007.4 |
| 20260507120858 | 49 | 78 | 0.9 | 4.3 | 0.00 | 0.23 | 0.02 | 82 | 1007.5 |
| 20260507120854 | 49 | 77 | 0.9 | 2.6 | 0.00 | 0.23 | 0.02 | 81 | 1007.5 |
| 20260507115848 | 49 | 82 | 0.9 | 4.3 | 0.00 | 0.23 | 0.02 | 82 | 1007.5 |
| 20260507115345 | 49 | 91 | 0.9 | 3.5 | 0.00 | 0.23 | 0.02 | 82 | 1007.4 |
| 20260507114821 | 49 | 92 | 0.9 | 3.5 | 0.00 | 0.23 | 0.02 | 82 | 1007.5 |
| 20260507114816 | 48 | 138 | 0.9 | 2.6 | 0.00 | 0.23 | 0.02 | 83 | 1007.3 |
| 20260507113813 | 48 | 53 | 0.9 | 2.6 | 0.00 | 0.23 | 0.02 | 83 | 1007.4 |
| 20260507113244 | 48 | 63 | 0.9 | 2.6 | 0.00 | 0.23 | 0.02 | 84 | 1007.4 |
| 20260507112741 | 48 | 123 | 0.0 | 0.9 | 0.00 | 0.23 | 0.02 | 84 | 1007.3 |
| 20260507112511 | 48 | 178 | 0.9 | 1.7 | 0.00 | 0.23 | 0.02 | 85 | 1007.2 |
| 20260507111941 | 47 | 178 | 0.9 | 2.6 | 0.00 | 0.23 | 0.02 | 84 | 1007.0 |
| 20260507111209 | 47 | 180 | 0.9 | 2.6 | 0.00 | 0.23 | 0.02 | 84 | 1007.2 |
| 20260507111141 | 47 | 76 | 0.0 | 1.7 | 0.00 | 0.23 | 0.02 | 85 | 1007.1 |
| 20260507110138 | 47 | 76 | 0.0 | 0.9 | 0.00 | 0.23 | 0.02 | 86 | 1007.1 |
| 20260507105613 | 47 | 76 | 0.9 | 1.7 | 0.00 | 0.23 | 0.02 | 86 | 1007.3 |
| 20260507105044 | 47 | 76 | 0.0 | 1.7 | 0.00 | 0.23 | 0.02 | 86 | 1007.0 |
| 20260507104543 | 47 | 76 | 0.9 | 1.7 | 0.00 | 0.23 | 0.02 | 85 | 1006.9 |
| 20260507104015 | 47 | 76 | 0.9 | 1.7 | 0.00 | 0.23 | 0.02 | 85 | 1006.5 |
| 20260507103512 | 47 | 67 | 0.9 | 2.6 | 0.00 | 0.23 | 0.02 | 85 | 1006.7 |
| 20260507102945 | 47 | 65 | 0.0 | 2.6 | 0.00 | 0.23 | 0.02 | 85 | 1006.4 |
| 20260507102445 | 47 | 47 | 0.0 | 0.9 | 0.00 | 0.23 | 0.02 | 85 | 1006.6 |
| 20260507101914 | 47 | 47 | 0.9 | 4.3 | 0.00 | 0.23 | 0.02 | 86 | 1006.5 |
| 20260507101411 | 47 | 47 | 0.9 | 4.3 | 0.00 | 0.23 | 0.02 | 86 | 1006.5 |
| 20260507100904 | 47 | 178 | 0.0 | 1.7 | 0.00 | 0.23 | 0.02 | 86 | 1006.7 |
| 20260507100402 | 47 | 178 | 0.0 | 1.7 | 0.00 | 0.23 | 0.02 | 86 | 1006.5 |
| 20260507095837 | 47 | 178 | 0.0 | 1.7 | 0.00 | 0.23 | 0.02 | 86 | 1006.5 |
| 20260507095810 | 47 | 178 | 0.9 | 5.2 | 0.00 | 0.23 | 0.02 | 86 | 1006.5 |
| 20260507094741 | 47 | 235 | 0.9 | 5.2 | 0.00 | 0.23 | 0.02 | 86 | 1006.6 |
| 20260507094239 | 47 | 180 | 0.0 | 1.7 | 0.00 | 0.23 | 0.02 | 86 | 1006.9 |
| 20260507093734 | 47 | 71 | 0.0 | 1.7 | 0.00 | 0.23 | 0.02 | 86 | 1006.7 |
| 20260507093232 | 47 | 32 | 0.0 | 1.7 | 0.00 | 0.23 | 0.02 | 86 | 1006.6 |
| 20260507092705 | 47 | 32 | 0.9 | 2.6 | 0.00 | 0.23 | 0.02 | 86 | 1006.9 |
| 20260507092201 | 48 | 32 | 0.9 | 2.6 | 0.00 | 0.23 | 0.02 | 86 | 1006.7 |
| 20260507091638 | 48 | 26 | 0.9 | 2.6 | 0.01 | 0.23 | 0.02 | 86 | 1006.8 |
| 20260507091135 | 48 | 355 | 0.9 | 2.6 | 0.01 | 0.23 | 0.02 | 86 | 1006.8 |
| 20260507090636 | 48 | 71 | 0.9 | 4.3 | 0.01 | 0.23 | 0.02 | 87 | 1006.8 |
| 20260507090115 | 48 | 227 | 0.9 | 4.3 | 0.01 | 0.23 | 0.02 | 87 | 1006.9 |
| 20260507085809 | 48 | 84 | 0.0 | 2.6 | 0.01 | 0.23 | 0.02 | 88 | 1006.5 |
| 20260507085038 | 48 | 84 | 0.0 | 2.6 | 0.01 | 0.23 | 0.02 | 88 | 1006.6 |
| 20260507084515 | 48 | 67 | 0.0 | 1.7 | 0.01 | 0.23 | 0.02 | 87 | 1006.4 |
| 20260507083952 | 48 | 67 | 0.0 | 0.9 | 0.01 | 0.23 | 0.02 | 87 | 1006.8 |
| 20260507083720 | 48 | 67 | 0.0 | 0.9 | 0.01 | 0.23 | 0.02 | 87 | 1006.7 |
| 20260507083558 | 49 | 67 | 0.0 | 0.9 | 0.01 | 0.23 | 0.02 | 87 | 1006.6 |
| 20260507082426 | 49 | 67 | 0.0 | 1.7 | 0.01 | 0.23 | 0.02 | 87 | 1006.3 |
| 20260507082133 | 49 | 90 | 0.0 | 1.7 | 0.00 | 0.22 | 0.01 | 86 | 1006.4 |
| 20260507081352 | 49 | 90 | 0.0 | 1.7 | 0.00 | 0.22 | 0.01 | 86 | 1006.4 |
| 20260507080850 | 49 | 271 | 0.0 | 1.7 | 0.00 | 0.22 | 0.01 | 86 | 1006.3 |
| 20260507080349 | 49 | 271 | 0.0 | 1.7 | 0.00 | 0.22 | 0.01 | 86 | 1006.2 |
| 20260507075849 | 49 | 271 | 0.9 | 2.6 | 0.00 | 0.22 | 0.01 | 86 | 1006.1 |
| 20260507075349 | 50 | 5 | 0.0 | 2.6 | 0.00 | 0.22 | 0.01 | 86 | 1006.4 |
| 20260507074851 | 50 | 0 | 0.0 | 2.6 | 0.00 | 0.22 | 0.01 | 86 | 1006.4 |
| 20260507074612 | 50 | 5 | 0.9 | 3.5 | 0.00 | 0.22 | 0.01 | 86 | 1006.4 |
| 20260507073837 | 50 | 137 | 0.9 | 3.5 | 0.00 | 0.22 | 0.01 | 86 | 1006.7 |
| 20260507073313 | 50 | 15 | 0.9 | 3.5 | 0.00 | 0.22 | 0.01 | 86 | 1006.4 |
| 20260507072748 | 50 | 116 | 0.9 | 2.6 | 0.00 | 0.22 | 0.01 | 87 | 1006.1 |
| 20260507072229 | 50 | 116 | 0.9 | 2.6 | 0.00 | 0.22 | 0.01 | 87 | 1005.9 |
| 20260507071705 | 50 | 92 | 0.0 | 1.7 | 0.00 | 0.22 | 0.01 | 87 | 1006.0 |
| 20260507071204 | 50 | 92 | 0.9 | 1.7 | 0.00 | 0.22 | 0.01 | 87 | 1005.9 |
| 20260507070705 | 50 | 92 | 0.9 | 2.6 | 0.00 | 0.22 | 0.01 | 87 | 1005.9 |
| 20260507070204 | 50 | 140 | 0.0 | 1.7 | 0.00 | 0.22 | 0.01 | 87 | 1006.1 |
| 20260507065906 | 50 | 107 | 0.0 | 1.7 | 0.00 | 0.22 | 0.01 | 87 | 1006.1 |
| 20260507065138 | 50 | 101 | 0.0 | 1.7 | 0.00 | 0.22 | 0.01 | 87 | 1006.0 |
| 20260507065133 | 50 | 101 | 0.9 | 2.6 | 0.00 | 0.22 | 0.01 | 87 | 1005.7 |
| 20260507064358 | 50 | 101 | 0.0 | 2.6 | 0.00 | 0.22 | 0.01 | 87 | 1005.9 |
| 20260507063602 | 50 | 193 | 0.0 | 0.9 | 0.00 | 0.22 | 0.01 | 87 | 1006.1 |
| 20260507063307 | 50 | 193 | 0.0 | 0.9 | 0.00 | 0.22 | 0.01 | 87 | 1005.9 |
| 20260507062511 | 51 | 193 | 0.0 | 0.0 | 0.00 | 0.22 | 0.01 | 87 | 1005.9 |
| 20260507061941 | 51 | 193 | 0.0 | 1.7 | 0.00 | 0.22 | 0.01 | 87 | 1005.8 |
| 20260507061441 | 51 | 193 | 0.0 | 1.7 | 0.00 | 0.22 | 0.01 | 87 | 1005.8 |
| 20260507060911 | 51 | 198 | 0.0 | 2.6 | 0.00 | 0.22 | 0.01 | 87 | 1005.9 |
| 20260507060409 | 51 | 198 | 0.0 | 2.6 | 0.00 | 0.22 | 0.01 | 87 | 1005.9 |
| 20260507055842 | 51 | 76 | 0.0 | 2.6 | 0.00 | 0.22 | 0.01 | 87 | 1005.9 |
| 20260507055548 | 51 | 129 | 0.9 | 2.6 | 0.00 | 0.22 | 0.01 | 87 | 1006.0 |
| 20260507054817 | 51 | 42 | 0.9 | 1.7 | 0.01 | 0.22 | 0.01 | 88 | 1006.3 |
| 20260507054813 | 51 | 116 | 0.0 | 2.6 | 0.00 | 0.22 | 0.01 | 87 | 1006.2 |
| 20260507053801 | 52 | 57 | 0.9 | 2.6 | 0.01 | 0.22 | 0.01 | 88 | 1006.4 |
| 20260507053257 | 52 | 57 | 0.9 | 2.6 | 0.01 | 0.22 | 0.01 | 88 | 1006.3 |
| 20260507053030 | 52 | 267 | 0.9 | 1.7 | 0.01 | 0.22 | 0.01 | 88 | 1006.5 |
| 20260507052232 | 52 | 119 | 0.0 | 1.7 | 0.01 | 0.22 | 0.01 | 88 | 1006.3 |
| 20260507051959 | 52 | 119 | 0.9 | 1.7 | 0.01 | 0.22 | 0.01 | 88 | 1006.3 |
| 20260507051228 | 52 | 119 | 0.9 | 3.5 | 0.01 | 0.22 | 0.01 | 88 | 1006.5 |
| 20260507050659 | 52 | 120 | 0.0 | 3.5 | 0.01 | 0.22 | 0.01 | 88 | 1006.6 |
| 20260507050157 | 53 | 143 | 0.0 | 2.6 | 0.01 | 0.22 | 0.01 | 88 | 1006.3 |
| 20260507045630 | 53 | 98 | 0.9 | 2.6 | 0.02 | 0.22 | 0.01 | 88 | 1006.3 |
| 20260507045104 | 53 | 140 | 0.0 | 4.3 | 0.03 | 0.22 | 0.01 | 88 | 1006.3 |
| 20260507044813 | 53 | 150 | 0.9 | 4.3 | 0.02 | 0.21 | 0.01 | 88 | 1006.1 |
| 20260507044029 | 53 | 150 | 0.9 | 4.3 | 0.02 | 0.21 | 0.00 | 88 | 1006.2 |
| 20260507043528 | 53 | 170 | 0.9 | 4.3 | 0.02 | 0.21 | 0.00 | 88 | 1006.2 |
| 20260507043000 | 54 | 173 | 0.9 | 5.2 | 0.02 | 0.21 | 0.00 | 88 | 1006.1 |
| 20260507042457 | 54 | 178 | 0.9 | 5.2 | 0.02 | 0.21 | 0.00 | 87 | 1006.1 |
| 20260507041932 | 54 | 105 | 1.7 | 8.7 | 0.02 | 0.21 | 0.00 | 87 | 1006.2 |
| 20260507041636 | 54 | 201 | 0.9 | 8.7 | 0.02 | 0.21 | 0.00 | 87 | 1006.3 |
| 20260507040840 | 55 | 261 | 0.9 | 3.5 | 0.02 | 0.21 | 0.00 | 87 | 1006.3 |
| 20260507040548 | 56 | 198 | 0.9 | 3.5 | 0.02 | 0.21 | 0.00 | 88 | 1006.3 |
| 20260507035814 | 56 | 302 | 0.9 | 2.6 | 0.02 | 0.21 | 0.21 | 89 | 1006.3 |
| 20260507035545 | 56 | 167 | 0.9 | 2.6 | 0.00 | 0.19 | 0.20 | 89 | 1006.0 |
| 20260507035047 | 56 | 27 | 0.9 | 2.6 | 0.00 | 0.19 | 0.19 | 88 | 1006.0 |
| 20260507034523 | 56 | 159 | 0.9 | 1.7 | 0.00 | 0.19 | 0.19 | 88 | 1005.7 |
| 20260507033725 | 56 | 159 | 0.9 | 2.6 | 0.00 | 0.19 | 0.19 | 88 | 1005.6 |
| 20260507033203 | 57 | 306 | 0.0 | 1.7 | 0.00 | 0.19 | 0.19 | 88 | 1005.5 |
| 20260507032909 | 57 | 315 | 0.0 | 1.7 | 0.00 | 0.19 | 0.19 | 88 | 1005.4 |
| 20260507032118 | 57 | 315 | 0.9 | 2.6 | 0.00 | 0.19 | 0.19 | 88 | 1005.3 |
| 20260507031616 | 57 | 315 | 1.7 | 5.2 | 0.00 | 0.19 | 0.19 | 88 | 1005.3 |
| 20260507031345 | 58 | 20 | 2.6 | 7.0 | 0.00 | 0.19 | 0.19 | 88 | 1005.1 |
| 20260507030613 | 58 | 46 | 0.9 | 6.1 | 0.00 | 0.19 | 0.19 | 89 | 1005.2 |
| 20260507030049 | 59 | 274 | 0.9 | 6.1 | 0.00 | 0.19 | 0.19 | 90 | 1005.1 |
| 20260507025756 | 59 | 180 | 0.9 | 2.6 | 0.00 | 0.19 | 0.19 | 90 | 1005.0 |
| 20260507025021 | 59 | 18 | 0.9 | 2.6 | 0.00 | 0.19 | 0.19 | 90 | 1005.2 |
| 20260507025017 | 59 | 88 | 0.9 | 2.6 | 0.00 | 0.19 | 0.19 | 90 | 1005.0 |
| 20260507024012 | 59 | 143 | 0.9 | 4.3 | 0.00 | 0.19 | 0.19 | 90 | 1004.9 |
| 20260507023511 | 59 | 54 | 0.9 | 4.3 | 0.00 | 0.19 | 0.19 | 90 | 1005.1 |
| 20260507023006 | 59 | 120 | 0.9 | 3.5 | 0.00 | 0.19 | 0.19 | 90 | 1005.0 |
| 20260507022504 | 59 | 121 | 0.9 | 3.5 | 0.00 | 0.19 | 0.19 | 90 | 1005.0 |
| 20260507021938 | 59 | 87 | 0.9 | 2.6 | 0.00 | 0.19 | 0.19 | 90 | 1004.9 |
| 20260507021413 | 59 | 87 | 0.9 | 2.6 | 0.00 | 0.19 | 0.19 | 90 | 1004.7 |
| 20260507020847 | 59 | 145 | 0.9 | 3.5 | 0.00 | 0.19 | 0.19 | 90 | 1004.6 |
| 20260507020318 | 59 | 92 | 1.7 | 2.6 | 0.00 | 0.19 | 0.19 | 90 | 1004.7 |
| 20260507015817 | 59 | 58 | 0.9 | 3.5 | 0.00 | 0.19 | 0.19 | 90 | 1004.8 |
| 20260507015518 | 59 | 42 | 0.9 | 6.1 | 0.00 | 0.19 | 0.19 | 90 | 1004.8 |
| 20260507014747 | 59 | 75 | 0.9 | 6.1 | 0.00 | 0.19 | 0.19 | 90 | 1004.8 |
| 20260507014226 | 59 | 112 | 0.9 | 3.5 | 0.00 | 0.19 | 0.19 | 90 | 1004.9 |
| 20260507013648 | 59 | 146 | 0.9 | 2.6 | 0.00 | 0.19 | 0.19 | 90 | 1004.9 |
| 20260507013145 | 59 | 114 | 0.9 | 2.6 | 0.00 | 0.19 | 0.19 | 90 | 1004.8 |
| 20260507012621 | 59 | 113 | 0.9 | 2.6 | 0.00 | 0.19 | 0.19 | 90 | 1004.8 |
| 20260507012052 | 59 | 112 | 0.9 | 1.7 | 0.00 | 0.19 | 0.19 | 90 | 1004.9 |
| 20260507011550 | 59 | 98 | 1.7 | 2.6 | 0.00 | 0.19 | 0.19 | 90 | 1004.9 |
| 20260507011253 | 59 | 100 | 1.7 | 2.6 | 0.00 | 0.19 | 0.19 | 90 | 1005.0 |
| 20260507010521 | 59 | 330 | 0.9 | 2.6 | 0.00 | 0.19 | 0.19 | 90 | 1005.0 |
| 20260507010226 | 59 | 136 | 0.9 | 2.6 | 0.00 | 0.19 | 0.19 | 90 | 1005.0 |
| 20260507005450 | 59 | 136 | 0.9 | 3.5 | 0.00 | 0.19 | 0.19 | 90 | 1004.9 |
| 20260507004949 | 59 | 136 | 1.7 | 3.5 | 0.00 | 0.19 | 0.19 | 90 | 1004.9 |
| 20260507004420 | 59 | 130 | 1.7 | 4.3 | 0.00 | 0.19 | 0.19 | 90 | 1004.9 |
| 20260507003919 | 59 | 164 | 1.7 | 4.3 | 0.00 | 0.19 | 0.19 | 90 | 1004.8 |
| 20260507003350 | 59 | 161 | 0.9 | 3.5 | 0.00 | 0.19 | 0.19 | 90 | 1004.7 |
| 20260507003120 | 59 | 207 | 0.9 | 3.5 | 0.00 | 0.19 | 0.19 | 90 | 1004.7 |
| 20260507002320 | 59 | 207 | 1.7 | 3.5 | 0.01 | 0.19 | 0.19 | 90 | 1004.7 |
| 20260507001818 | 59 | 134 | 1.7 | 3.5 | 0.01 | 0.19 | 0.19 | 90 | 1004.7 |
| 20260507001314 | 59 | 107 | 1.7 | 3.5 | 0.01 | 0.19 | 0.19 | 90 | 1004.7 |
| 20260507000813 | 59 | 62 | 1.7 | 3.5 | 0.03 | 0.19 | 0.19 | 90 | 1004.8 |
| 20260507000244 | 59 | 148 | 0.9 | 2.6 | 0.05 | 0.19 | 0.19 | 90 | 1004.8 |
| 20260506235743 | 59 | 153 | 0.9 | 2.6 | 0.06 | 0.19 | 0.19 | 90 | 1004.7 |
| 20260506235214 | 59 | 152 | 1.7 | 3.5 | 0.06 | 0.19 | 0.19 | 90 | 1004.5 |
| 20260506234713 | 59 | 143 | 0.9 | 3.5 | 0.06 | 0.19 | 0.19 | 90 | 1004.6 |
| 20260506234208 | 59 | 146 | 0.9 | 4.3 | 0.07 | 0.19 | 0.19 | 90 | 1004.6 |
| 20260506233706 | 59 | 150 | 1.7 | 4.3 | 0.08 | 0.19 | 0.19 | 90 | 1004.6 |
| 20260506233159 | 59 | 142 | 0.9 | 4.3 | 0.09 | 0.19 | 0.19 | 89 | 1004.6 |
| 20260506233154 | 59 | 148 | 1.7 | 4.3 | 0.09 | 0.19 | 0.19 | 90 | 1004.6 |
| 20260506232140 | 59 | 173 | 1.7 | 4.3 | 0.08 | 0.18 | 0.18 | 89 | 1004.6 |
| 20260506231637 | 59 | 130 | 1.7 | 2.6 | 0.10 | 0.18 | 0.18 | 89 | 1004.6 |
| 20260506231409 | 59 | 101 | 1.7 | 5.2 | 0.09 | 0.17 | 0.18 | 89 | 1004.7 |
| 20260506230636 | 59 | 99 | 1.7 | 5.2 | 0.08 | 0.15 | 0.16 | 89 | 1004.7 |
| 20260506230108 | 59 | 162 | 0.9 | 3.5 | 0.07 | 0.14 | 0.14 | 89 | 1004.7 |
| 20260506225606 | 59 | 162 | 1.7 | 3.5 | 0.06 | 0.13 | 0.13 | 89 | 1004.7 |
| 20260506225041 | 59 | 163 | 0.9 | 3.5 | 0.06 | 0.13 | 0.13 | 89 | 1004.8 |
| 20260506224743 | 59 | 161 | 0.9 | 3.5 | 0.05 | 0.12 | 0.12 | 89 | 1004.9 |
| 20260506224011 | 59 | 171 | 0.9 | 3.5 | 0.04 | 0.11 | 0.11 | 89 | 1004.8 |
| 20260506223443 | 59 | 159 | 0.9 | 3.5 | 0.04 | 0.11 | 0.11 | 88 | 1004.8 |
| 20260506222943 | 59 | 160 | 1.7 | 5.2 | 0.03 | 0.10 | 0.10 | 88 | 1004.8 |
| 20260506222421 | 59 | 168 | 1.7 | 5.2 | 0.03 | 0.10 | 0.10 | 88 | 1004.9 |
| 20260506222153 | 59 | 128 | 1.7 | 6.1 | 0.02 | 0.09 | 0.09 | 88 | 1005.0 |
| 20260506221418 | 59 | 148 | 1.7 | 6.1 | 0.01 | 0.08 | 0.08 | 88 | 1005.0 |
| 20260506220915 | 59 | 174 | 1.7 | 4.3 | 0.01 | 0.08 | 0.08 | 88 | 1005.0 |
| 20260506220416 | 59 | 190 | 1.7 | 4.3 | 0.00 | 0.07 | 0.07 | 88 | 1005.1 |
| 20260506215914 | 59 | 162 | 0.9 | 4.3 | 0.01 | 0.07 | 0.07 | 88 | 1005.1 |
| 20260506215354 | 59 | 138 | 1.7 | 4.3 | 0.01 | 0.07 | 0.07 | 88 | 1005.3 |
| 20260506214857 | 59 | 141 | 1.7 | 4.3 | 0.01 | 0.07 | 0.07 | 88 | 1005.2 |
| 20260506214344 | 59 | 176 | 1.7 | 4.3 | 0.01 | 0.07 | 0.07 | 88 | 1005.1 |
| 20260506213847 | 60 | 175 | 1.7 | 4.3 | 0.02 | 0.07 | 0.07 | 88 | 1005.0 |
| 20260506213321 | 60 | 169 | 0.9 | 3.5 | 0.02 | 0.07 | 0.07 | 88 | 1005.1 |
| 20260506212821 | 60 | 135 | 0.9 | 2.6 | 0.02 | 0.07 | 0.07 | 88 | 1005.2 |
| 20260506212306 | 60 | 132 | 1.7 | 4.3 | 0.03 | 0.07 | 0.07 | 88 | 1005.3 |
| 20260506211805 | 60 | 176 | 1.7 | 4.3 | 0.03 | 0.07 | 0.07 | 87 | 1005.4 |
| 20260506211242 | 60 | 184 | 1.7 | 4.3 | 0.03 | 0.07 | 0.07 | 87 | 1005.5 |
| 20260506210725 | 60 | 188 | 1.7 | 4.3 | 0.04 | 0.07 | 0.07 | 87 | 1005.5 |
| 20260506210455 | 60 | 162 | 1.7 | 4.3 | 0.04 | 0.07 | 0.07 | 87 | 1005.5 |
| 20260506205958 | 60 | 153 | 1.7 | 3.5 | 0.03 | 0.06 | 0.06 | 87 | 1005.8 |
| 20260506205209 | 60 | 182 | 1.7 | 5.2 | 0.03 | 0.06 | 0.06 | 86 | 1005.7 |
| 20260506204710 | 60 | 169 | 1.7 | 4.3 | 0.03 | 0.06 | 0.06 | 87 | 1005.8 |
| 20260506204149 | 61 | 139 | 1.7 | 3.5 | 0.02 | 0.05 | 0.06 | 86 | 1005.8 |
| 20260506203649 | 61 | 155 | 1.7 | 6.1 | 0.02 | 0.05 | 0.05 | 86 | 1005.8 |
| 20260506203149 | 61 | 297 | 0.9 | 6.1 | 0.02 | 0.05 | 0.05 | 86 | 1005.8 |
| 20260506202646 | 61 | 143 | 1.7 | 2.6 | 0.03 | 0.05 | 0.05 | 86 | 1005.8 |
| 20260506202417 | 62 | 134 | 1.7 | 3.5 | 0.02 | 0.04 | 0.04 | 85 | 1005.8 |
| 20260506201849 | 62 | 189 | 1.7 | 3.5 | 0.02 | 0.04 | 0.04 | 85 | 1005.6 |
| 20260506201051 | 62 | 205 | 1.7 | 3.5 | 0.01 | 0.03 | 0.03 | 84 | 1005.7 |
| 20260506200525 | 62 | 138 | 1.7 | 3.5 | 0.02 | 0.03 | 0.03 | 84 | 1005.8 |
| 20260506195959 | 62 | 138 | 0.9 | 3.5 | 0.02 | 0.03 | 0.03 | 85 | 1005.7 |
| 20260506195432 | 62 | 172 | 0.9 | 2.6 | 0.02 | 0.03 | 0.03 | 84 | 1005.7 |
| 20260506194928 | 62 | 173 | 1.7 | 5.2 | 0.03 | 0.03 | 0.03 | 84 | 1005.8 |
| 20260506194425 | 62 | 338 | 1.7 | 5.2 | 0.03 | 0.03 | 0.03 | 83 | 1005.7 |
| 20260506193924 | 63 | 136 | 0.9 | 1.7 | 0.03 | 0.03 | 0.03 | 84 | 1005.7 |
| 20260506193358 | 63 | 136 | 1.7 | 3.5 | 0.03 | 0.03 | 0.03 | 83 | 1005.8 |
| 20260506192829 | 63 | 128 | 1.7 | 5.2 | 0.02 | 0.02 | 0.02 | 82 | 1005.8 |
| 20260506192329 | 64 | 130 | 1.7 | 5.2 | 0.02 | 0.02 | 0.02 | 82 | 1005.8 |
| 20260506191759 | 64 | 157 | 1.7 | 4.3 | 0.02 | 0.02 | 0.02 | 81 | 1005.7 |
| 20260506191258 | 64 | 158 | 1.7 | 4.3 | 0.02 | 0.02 | 0.02 | 79 | 1005.7 |
| 20260506190729 | 65 | 114 | 1.7 | 3.5 | 0.01 | 0.01 | 0.01 | 79 | 1005.8 |
| 20260506190228 | 65 | 111 | 1.7 | 4.3 | 0.01 | 0.01 | 0.01 | 78 | 1005.8 |
| 20260506185932 | 66 | 308 | 0.9 | 4.3 | 0.01 | 0.01 | 0.01 | 77 | 1006.0 |
| 20260506185133 | 66 | 131 | 0.9 | 2.6 | 0.01 | 0.01 | 0.01 | 77 | 1005.9 |
| 20260506184631 | 67 | 113 | 1.7 | 3.5 | 0.00 | 0.00 | 0.00 | 76 | 1005.9 |
| 20260506184123 | 67 | 158 | 1.7 | 4.3 | 0.00 | 0.00 | 0.00 | 75 | 1006.1 |
| 20260506183852 | 68 | 41 | 0.9 | 4.3 | 0.00 | 0.00 | 0.00 | 73 | 1005.9 |
| 20260506183119 | 68 | 67 | 1.7 | 7.0 | 0.00 | 0.00 | 0.00 | 73 | 1006.1 |
| 20260506182822 | 69 | 117 | 2.6 | 7.0 | 0.00 | 0.00 | 0.00 | 70 | 1006.0 |
| 20260506182048 | 69 | 150 | 1.7 | 7.0 | 0.00 | 0.00 | 0.00 | 70 | 1006.2 |
| 20260506181522 | 69 | 172 | 1.7 | 5.2 | 0.00 | 0.00 | 0.00 | 70 | 1006.0 |
| 20260506181500 | 70 | 148 | 2.6 | 7.0 | 0.00 | 0.00 | 0.00 | 68 | 1006.0 |
| 20260506180452 | 70 | 164 | 2.6 | 7.0 | 0.00 | 0.00 | 0.00 | 64 | 1006.0 |
| 20260506175951 | 71 | 123 | 2.6 | 7.8 | 0.00 | 0.00 | 0.00 | 64 | 1006.1 |
| 20260506175423 | 71 | 200 | 2.6 | 7.8 | 0.00 | 0.00 | 0.00 | 61 | 1006.1 |
| 20260506174922 | 71 | 159 | 2.6 | 7.8 | 0.00 | 0.00 | 0.00 | 60 | 1006.1 |
| 20260506174353 | 72 | 182 | 3.5 | 10.4 | 0.00 | 0.00 | 0.00 | 59 | 1006.1 |
| 20260506174122 | 72 | 148 | 2.6 | 10.4 | 0.00 | 0.00 | 0.00 | 59 | 1006.0 |
| 20260506173323 | 72 | 225 | 1.7 | 7.0 | 0.00 | 0.00 | 0.00 | 61 | 1006.1 |
| 20260506172821 | 72 | 203 | 2.6 | 7.0 | 0.00 | 0.00 | 0.00 | 60 | 1005.9 |
| 20260506172317 | 72 | 228 | 2.6 | 7.0 | 0.00 | 0.00 | 0.00 | 60 | 1005.9 |
| 20260506172048 | 72 | 179 | 2.6 | 9.6 | 0.00 | 0.00 | 0.00 | 61 | 1006.0 |
| 20260506171247 | 72 | 163 | 1.7 | 9.6 | 0.00 | 0.00 | 0.00 | 61 | 1006.1 |
| 20260506170744 | 72 | 170 | 1.7 | 6.1 | 0.00 | 0.00 | 0.00 | 63 | 1006.2 |